Notices

What's New in latest Release from April 7th, 2021:

- Updated Glossary, including Speed of Maximum Gust, and Total Hourly Precipitation

- Updated national and regional climate services offices contacts and prices information

- Addition of station inventory lists for 1981-2010, 1971-2000, and 1961-1990 Normals.

If you haven't already, please take our survey and provide feedback about our website: https://eccc.sondage-survey.ca/f/LanguageSelection.aspx?s=442ca660-fcf1-47c0-95a9-59707d6fd709

Hourly Data Report for November 08, 2019

EUREKA CLIMATE
NUNAVUT
Current Station Operator: ECCC - MSC

79°59'21.000" N
85°56'02.000" W
10.00 m
2401199
71613
NEK

Download Data

Hourly Data (November 2019)
Hourly Data Report for November 8, 2019
TIME
LST
Temp Definition
°C
Dew Point Definition
°C
Rel Hum Definition
%
Precip. Amount Definition
mm

Wind Dir Definition
10's deg

Wind Spd Definition
km/h
Visibility Definition
km
Stn Press Definition
kPa
Hmdx Definition


Wind Chill Definition


Weather Definition


00:00 -29.1 -31.7 78 0.0 2 13   101.89   -39 LegendNANA
01:00 -29.2 -31.9 77 0.0 2 13   101.92   -40 LegendNANA
02:00 -27.9 -30.8 76 0.0 3 8   101.95   -36 LegendNANA
03:00 -26.5 -28.9 80 0.0 12 5   101.95   -32 LegendNANA
04:00 -27.9 -30.4 79 0.0 36 10   101.96   -37 LegendNANA
05:00 -28.2 -30.6 79 0.0 2 10   101.95   -37 LegendNANA
06:00 -28.3 -31.1 78 0.0 1 5   101.97   -34 LegendNANA
07:00 -27.1 -29.5 80 0.0 2 12   101.96   -37 LegendNANA
08:00 -26.6 -29.1 80 0.0 2 12   101.95   -36 LegendNANA
09:00 -25.8 -28.3 80 0.0 2 10   101.95   -34 LegendNANA
10:00 -26.5 -29.0 79 0.0 3 10   101.94   -35 LegendNANA
11:00 -26.1 -28.5 80 0.0 2 9   101.96   -34 LegendNANA
12:00 -27.8 -30.5 78 0.0 2 14   101.98   -38 LegendNANA
13:00 -28.8 -31.5 77 0.0 2 16   102.00   -40 LegendNANA
14:00 -29.0 -31.9 76 0.0 2 15   102.01   -40 LegendNANA
15:00 -29.5 -32.4 76 0.0 1 14   102.04   -40 LegendNANA
16:00 -28.8 -31.6 77 0.0 5 5   102.07   -34 LegendNANA
17:00 -29.0 -31.7 77 0.0 12 5   102.09   -34 LegendNANA
18:00 -30.2 -33.1 76 0.2 9 2   102.10   -32 LegendNANA
19:00 -30.3 -33.0 77 0.0 7 3   102.12   -34 LegendNANA
20:00 -31.5 -34.4 76 0.0 11 4   102.11   -36 LegendNANA
21:00 -31.8 -34.7 76 0.0 11 1   102.12   -33 LegendNANA
22:00 -32.9 -35.8 75 0.0 2 2   102.12   -35 LegendNANA
23:00 -32.3 -35.2 75 0.0 12 6   102.11   -39 LegendNANA

Notes on Data Quality.

Legend

  • E = Estimated
  • M = Missing
  • NA = Not Available*
  • [empty] = Indicates an unobserved value
Date modified: